Home   Weather   Newark   Past weeks

Flag for USA Past Weather in Newark, New Jersey, USA — Yesterday and Last 2 Weeks

Now
62 °F

Broken clouds.


Feels Like: 62 °F
Forecast: 47 / 62 °F
Wind: 10 mph from West

Location: Newark International Airport

Current Time: Feb 19, 2017 at 11:32:28 am

Latest Report: Feb 19, 2017 at 10:51 am


Visibility: 10 mi

Pressure: 29.81 "Hg

Humidity: 39%

Dew Point: 37 °F

Location of NewarkLocation

Past Weather in Newark — Graph

°F

Newark Temperature Yesterday

Maximum temperature yesterday: 65 °F (at 2:51 pm)
Minimum temperature yesterday: 31 °F (at 4:51 am)
Average temperature yesterday: 48 °F

High & Low Weather Summary for the Past Weeks

 TemperatureHumidityPressure
High65 °F (Feb 18, 2:51 pm)100% (Feb 8, 12:51 am)30.41 "Hg (Feb 8, 12:51 am)
Low18 °F (Feb 10, 12:51 am)27% (Feb 4, 2:51 pm)29.31 "Hg (Feb 15, 3:51 pm)
Average37 °F62%29.84 "Hg
* Reported Feb 4 9:51 am — Feb 19 9:51 am, Newark, Weather by CustomWeather, © 2017

Note: Actual official high and low records may vary slightly from our data, if they occured in-between our weather recording intervals... More about our weather records

Advertising

Newark Weather History for the Previous 24 Hours

Scroll right to see more
 ConditionsComfort  
Time TempWeatherWind HumidityBarometerVisibility
9:51 am
Sun, Feb 19
60 °FBroken clouds.9 mph42%29.82 "Hg10 mi
8:51 am56 °FPartly sunny.6 mph47%29.81 "Hg10 mi
7:51 am51 °FPartly sunny.3 mph54%29.79 "Hg10 mi
6:51 am52 °FPartly sunny.No wind49%29.76 "Hg10 mi
5:51 am47 °FPartly cloudy.3 mph59%29.74 "Hg10 mi
4:51 am49 °FPartly cloudy.3 mph52%29.72 "Hg10 mi
3:51 am49 °FPassing clouds.8 mph55%29.71 "Hg10 mi
2:51 am51 °FPartly cloudy.10 mph50%29.70 "Hg10 mi
1:51 am49 °FPassing clouds.8 mph55%29.69 "Hg10 mi
12:51 am50 °FPassing clouds.7 mph52%29.68 "Hg10 mi
11:51 pm
Sat, Feb 18
52 °FPassing clouds.7 mph47%29.67 "Hg10 mi
10:51 pm52 °FPassing clouds.8 mph47%29.67 "Hg10 mi
9:51 pm53 °FPassing clouds.12 mph45%29.67 "Hg10 mi
8:51 pm58 °FPassing clouds.9 mph36%29.67 "Hg10 mi
7:51 pm57 °FPassing clouds.12 mph39%29.66 "Hg10 mi
6:51 pm58 °FPassing clouds.6 mph39%29.66 "Hg10 mi
5:51 pm60 °FPartly cloudy.3 mph36%29.66 "Hg10 mi
4:51 pm63 °FBroken clouds.10 mph33%29.66 "Hg10 mi
3:51 pm63 °FPartly sunny.10 mph34%29.67 "Hg10 mi
2:51 pm65 °FPartly sunny.14 mph29%29.67 "Hg10 mi
1:51 pm63 °FScattered clouds.12 mph30%29.68 "Hg10 mi
12:51 pm59 °FScattered clouds.14 mph33%29.72 "Hg10 mi
11:51 am56 °FScattered clouds.12 mph34%29.77 "Hg10 mi
Weather by CustomWeather, © 2017

See weather overviewHow to use our weather pages